Starlink 5188

operational
NORAD ID: 54096 Int'l Des: 2022-136 Owner: SPXS Country: US Constellation: starlink
LEOCIRCULAR

关于 Starlink 5188

正在加载描述...

实时位置

正在加载3D地球...

即将过境

高度历史

Altitude vs Time

uPlot chart will show altitude changes over time

两行轨道根数

1 54096U 22136AX 25303.96922125 .00000362 00000-0 40811-4 0 9996
2 54096 53.2159 196.2496 0001278 96.5824 263.5314 15.08845111167406
Epoch: Oct 30, 2025 • Age: 21 hours

当前状态

高度 543.2 km
速度 7.60 km/s
星下点 42.30°N, 108.15°W
发射日期 Oct 20, 2022
运行时间 3 years
类型 internet

技术详情

分类 Payload
质量 305.00 kg
干质量 290.00 kg
总质量 305.00 kg
长度 0.20 m
直径 2.80 m
跨度 9.00 m
形状 Box + pan
制造商 SPXS
平台类型 Starlink
阶段状态 In Orbit
所有者/国家 SPXS/US

大型星座

Loading constellations...